[[{"header":{"parameterUnit":"m.s-1","parameterCategory":1,"la1":30.2991,"la2":30.254,"lo1":-89.0895,"lo2":-89.0444,"dy":0.0017,"dx":0.0017,"nx":28,"ny":28,"refTime":"2023-10-28T09:00:00:Z","depth":0,"parameterNumber":2,"parameterNumberName":"U-component_of_WINDS"},"data":[0,0,0,0,0,0,0,0,0,0,0,0,0,0,0,0,0,0,0,0,0,0,0,0,0,0,0,0,0,0,0,0,0,0,0,0,0,0,0,0,0,0,0,0,0,0,0,0,0,0,0,0,0,0,0,0,0,0,-3.0091,-3.009,0,-3.0072,-3.0071,-3.0071,-2.9942,-2.9939,-2.9936,-2.9933,-2.9917,-2.992,-2.9922,0,0,0,0,0,0,0,0,0,0,0,0,0,-3.0019,-3.0021,-3.0091,-3.009,-3.009,-3.0072,-3.0071,-3.0071,-2.9942,-2.9939,-2.9935,-2.9931,-2.9917,-2.992,-2.9923,0,0,0,0,0,0,0,0,0,0,0,0,0,-3.0031,-3.0022,-3.0091,-3.0024,-3.0017,-3.0072,-3.0071,-3.0071,-2.9943,-2.9939,-2.9934,-2.9929,-2.9916,-2.9919,-2.9923,-3.0042,0,0,-2.9935,-2.9936,0,0,0,0,0,0,0,0,-3.003,-3.0033,-3.0034,-3.0028,-3.0021,-3.0004,-3.004,-3.0061,-2.9944,-2.9972,-2.9933,-2.9927,-2.995,-2.9951,-2.9958,-3.0041,-3.004,-2.9935,-2.9937,-2.9939,-2.994,0,0,0,0,0,0,0,-3.0029,-3.0033,-3.0083,-3.0034,-3.0026,-2.9996,-2.9992,-3.0044,-2.9988,-2.9969,-2.9959,-2.9959,-2.9946,-2.9955,-2.9957,-3.004,-2.9935,-2.9938,-2.9941,-2.9942,-3.022,-3.0225,0,0,0,0,0,0,-3.0037,-3.0034,-3.0084,-3.0082,-3.0014,-3.0001,-2.9997,-3.0015,-2.9987,-2.9978,-2.9963,-2.9953,-2.995,-2.9952,-2.9956,-3.0093,-2.9939,-2.9943,-2.9945,-3.0215,-3.0221,-3.0226,0,0,0,0,0,0,-3.0036,-3.0043,-3.0084,-3.0055,-3.0058,-3.0007,-3.0028,-3.0017,-3.0025,-2.9982,-2.9972,-2.9982,-2.9947,-2.995,-3.0021,-3.0091,-2.9944,-2.9948,-3.0209,-3.0217,-3.0224,-3.037,0,0,0,0,0,0,-3.0035,-3.0044,-3.0087,-3.0057,-3.006,-3.015,-3.0032,-3.002,-3.0031,-3.0018,-2.9997,-2.9989,-2.9943,-3.0016,-3.0025,-3.0094,-2.9951,-3.0202,-3.0212,-3.0221,-3.0358,-3.0381,-3.0401,0,0,0,0,0,-3.0033,-3.013,-3.009,-3.0097,-3.0114,-3.0154,-3.0156,-3.01,-3.0038,-3.0082,-3.0054,-2.999,-3.0082,-3.0024,-3.0033,-3.0104,-3.0198,-3.0209,-3.022,-3.0349,-3.0377,-3.04,0,0,0,0,0,0,-3.0171,-3.0125,-3.008,-3.017,-3.0167,-3.0132,-3.0186,-3.0131,-3.0146,-3.0133,-3.0064,-3.0061,-3.0142,-3.013,-3.0067,-3.0218,-3.0129,-3.0142,-3.0223,-3.0249,-3.027,-3.0272,-2.9954,0,0,0,0,0,-3.0211,-3.0246,-3.0205,-3.0288,-3.0288,-3.0238,-3.0253,-3.021,-3.0204,-3.0203,-3.018,-3.0179,-3.0207,-3.0227,-3.0251,-3.0355,-3.035,-3.0408,-3.043,-3.0447,-3.0461,-3.0516,-3.0543,-3.0264,-3.0264,-3.0264,0,0,-3.0296,-3.0275,-3.0302,-3.0315,-3.0308,-3.0347,-3.0238,-3.0284,-3.0313,-3.021,-3.0275,-3.0259,-3.0252,-3.0341,-3.0379,-3.0333,-3.0536,-3.0462,-3.0477,-3.048,-3.0531,-3.0557,-3.0581,-3.0272,-3.027,-3.0269,0,0,-3.0471,-3.0458,-3.0527,-3.0521,-3.051,-3.0476,-3.0492,-3.0466,-3.0451,-3.0515,-3.0439,-3.0473,-3.0523,-3.0521,-3.0527,-3.0701,-3.0643,-3.0711,-3.0823,-3.0878,-3.09,-3.0919,-3.0983,-3.1006,-3.0724,-3.0724,-3.0725,0,-3.0579,-3.0633,-3.0569,-3.062,-3.0629,-3.0536,-3.0606,-3.0604,-3.0603,-3.0611,-3.056,-3.062,-3.0609,-3.0697,-3.0739,-3.0747,-3.0765,-3.0714,-3.0902,-3.092,-3.0937,-3.0997,-3.1021,-3.0733,-3.0732,-3.0731,-3.073,0,-3.0767,-3.0806,-3.0863,-3.0862,-3.0877,-3.0937,-3.0884,-3.0907,-3.0862,-3.0834,-3.0901,-3.0884,-3.0903,-3.092,-3.0878,-3.1003,-3.0975,-3.0914,-3.0823,-3.0973,-3.1029,-3.1051,-3.0745,-3.0742,-3.0739,-3.0737,0,0,-3.1029,-3.0992,-3.1014,-3.1013,-3.0994,-3.1024,-3.108,-3.1097,-3.1119,-3.1121,-3.1168,-3.1212,-3.1155,-3.1162,-3.1118,-3.1167,-3.1308,-3.1099,-3.1098,-3.114,-3.1445,-3.1493,-3.152,-3.1268,-3.1272,-3.1275,-3.1446,0,-3.1198,-3.1292,-3.1236,-3.1338,-3.1374,-3.1287,-3.1336,-3.1331,-3.1305,-3.1334,-3.1306,-3.1339,-3.126,-3.1264,-3.1308,-3.1281,-3.1368,-3.1268,-3.1313,-3.1315,-3.1319,-3.1549,-3.1599,-3.1761,-3.1467,-3.1471,-3.1474,0,-3.1408,-3.1418,-3.1524,-3.1498,-3.1511,-3.1557,-3.1568,-3.1595,-3.1588,-3.1566,-3.1574,-3.1519,-3.1574,-3.1483,-3.1559,-3.1492,-3.1507,-3.1497,-3.1501,-3.1505,-3.1405,-3.1561,-3.1812,-3.1837,-3.1507,-3.1504,-3.1502,0,-3.1592,-3.1631,-3.1699,-3.1701,-3.1672,-3.1706,-3.1696,-3.1684,-3.1698,-3.1708,-3.1717,-3.1734,-3.1745,-3.176,-3.1711,-3.1649,-3.1794,-3.1699,-3.1779,-3.1781,-3.1815,-3.1814,-3.2074,-3.1823,-3.1822,-3.1822,-3.1821,0,-3.1787,-3.1856,-3.1781,-3.1824,-3.1899,-3.1834,-3.191,-3.189,-3.188,-3.1918,-3.1843,-3.1881,-3.1814,-3.1845,-3.1807,-3.1877,-3.1881,-3.1867,-3.1856,-3.1875,-3.1877,-3.1885,-3.1873,-3.1828,-3.1827,-3.1825,-3.1824,0,-3.2005,-3.1958,-3.2027,-3.1994,-3.1987,-3.2044,-3.2016,-3.2054,-3.2023,-3.2073,-3.2081,-3.2033,-3.2066,-3.2019,-3.2047,-3.2022,-3.2118,-3.2089,-3.212,-3.2113,-3.2196,-3.219,-3.2472,-3.2507,-3.2232,-3.2234,-3.2236,0,-3.2134,-3.2185,-3.2157,-3.2176,-3.217,-3.2202,-3.2216,-3.2154,-3.2172,-3.2167,-3.2207,-3.2233,-3.2251,-3.2308,-3.2277,-3.2299,-3.2271,-3.2369,-3.2274,-3.2292,-3.2275,-3.2274,-3.2279,-3.2389,-3.2392,-3.2395,-3.2397,0,-3.2369,-3.2342,-3.2364,-3.2379,-3.2397,-3.2405,-3.2408,-3.2429,-3.2364,-3.2388,-3.242,-3.2434,-3.2462,-3.249,-3.2503,-3.2494,-3.2437,-3.2427,-3.2447,-3.2467,-3.2484,-3.2478,-3.2175,-3.2421,-3.2419,-3.2417,-3.2416,-3.2415,-3.2547,-3.2588,-3.2575,-3.2602,-3.2597,-3.2602,-3.2637,-3.261,-3.2635,-3.2652,-3.2614,-3.2657,-3.2648,-3.266,-3.2657,-3.269,-3.2648,-3.2676,-3.2684,-3.2693,-3.2706,-3.2477,-3.2692,-3.2691,-3.269,-3.269,-3.2689,0,-3.2779,-3.2766,-3.2791,-3.2797,-3.2819,-3.276,-3.276,-3.2783,-3.2821,-3.2817,-3.2836,-3.2873,-3.29,-3.2871,-3.2892,-3.2924,-3.2898,-3.2932,-3.293,-3.293,-3.2742,-3.2723,-3.2953,-3.2953,-3.2953,-3.2953,-3.2953,-3.2953,-3.2902,-3.2969,-3.2942,-3.3006,-3.2992,-3.3032,-3.3037,-3.3042,-3.3038,-3.3084,-3.3105,-3.3085,-3.3071,-3.3091,-3.3113,-3.3104,-3.3116,-3.316,-3.3142,-3.2968,-3.2942,-3.2918,-3.29,-3.3163,-3.3163,-3.3327,-3.3328,-3.333]},{"header":{"parameterUnit":"m.s-1","parameterCategory":1,"la1":30.2991,"la2":30.254,"lo1":-89.0895,"lo2":-89.0444,"dy":0.0017,"dx":0.0017,"nx":28,"ny":28,"refTime":"2023-10-28T09:00:00:Z","depth":0,"parameterNumber":3,"parameterNumberName":"V-component_of_WINDS"},"data":[0,0,0,0,0,0,0,0,0,0,0,0,0,0,0,0,0,0,0,0,0,0,0,0,0,0,0,0,0,0,0,0,0,0,0,0,0,0,0,0,0,0,0,0,0,0,0,0,0,0,0,0,0,0,0,0,0,0,-1.3694,-1.3694,0,-1.3728,-1.3728,-1.3729,-1.3724,-1.3724,-1.3723,-1.3723,-1.3755,-1.3756,-1.3758,0,0,0,0,0,0,0,0,0,0,0,0,0,-1.3622,-1.3623,-1.3694,-1.3694,-1.3695,-1.3728,-1.3728,-1.3729,-1.3724,-1.3724,-1.3723,-1.3722,-1.3755,-1.3756,-1.3758,0,0,0,0,0,0,0,0,0,0,0,0,0,-1.3654,-1.3623,-1.3694,-1.3696,-1.3697,-1.3728,-1.3728,-1.3729,-1.3724,-1.3724,-1.3723,-1.3722,-1.3754,-1.3756,-1.3758,-1.3788,0,0,-1.3765,-1.3765,0,0,0,0,0,0,0,0,-1.3652,-1.3657,-1.3696,-1.3696,-1.3697,-1.3721,-1.3715,-1.3748,-1.3725,-1.3714,-1.3722,-1.3722,-1.3744,-1.3747,-1.3755,-1.3789,-1.3791,-1.3765,-1.3766,-1.3767,-1.3767,0,0,0,0,0,0,0,-1.365,-1.3655,-1.3707,-1.3696,-1.3697,-1.3695,-1.3699,-1.3721,-1.3733,-1.3715,-1.3715,-1.3719,-1.3744,-1.3753,-1.3756,-1.3791,-1.3765,-1.3767,-1.3768,-1.3769,-1.3849,-1.385,0,0,0,0,0,0,-1.3647,-1.3653,-1.3706,-1.3708,-1.3672,-1.3697,-1.3701,-1.3714,-1.3733,-1.3735,-1.3719,-1.3718,-1.375,-1.3754,-1.3757,-1.3792,-1.3767,-1.3769,-1.377,-1.3848,-1.3849,-1.385,0,0,0,0,0,0,-1.3646,-1.3652,-1.3705,-1.3681,-1.3687,-1.3699,-1.3714,-1.3715,-1.3724,-1.3737,-1.3738,-1.3726,-1.375,-1.3754,-1.378,-1.3793,-1.377,-1.3772,-1.3847,-1.3848,-1.385,-1.3862,0,0,0,0,0,0,-1.3644,-1.3652,-1.3664,-1.3681,-1.3689,-1.3728,-1.3715,-1.3716,-1.3728,-1.3727,-1.3744,-1.3746,-1.3749,-1.3777,-1.3782,-1.3795,-1.3773,-1.3846,-1.3848,-1.3849,-1.3861,-1.3864,-1.3866,0,0,0,0,0,-1.3641,-1.3666,-1.3664,-1.3671,-1.3704,-1.3729,-1.3733,-1.3737,-1.3729,-1.3741,-1.3748,-1.3745,-1.3791,-1.3779,-1.3785,-1.38,-1.3845,-1.3847,-1.3849,-1.3859,-1.3863,-1.3866,0,0,0,0,0,0,-1.3649,-1.3668,-1.3667,-1.3698,-1.3712,-1.3728,-1.3743,-1.3742,-1.3758,-1.3756,-1.376,-1.3764,-1.3789,-1.3797,-1.3784,-1.3828,-1.3817,-1.382,-1.3822,-1.3826,-1.3829,-1.3826,-1.3775,0,0,0,0,0,-1.3655,-1.3674,-1.3689,-1.3715,-1.3722,-1.3731,-1.3742,-1.3744,-1.3759,-1.3764,-1.3774,-1.3787,-1.3804,-1.3816,-1.3832,-1.3862,-1.3864,-1.3874,-1.3877,-1.3879,-1.3882,-1.3897,-1.3901,-1.3857,-1.3857,-1.3857,0,0,-1.3666,-1.3679,-1.3691,-1.3717,-1.3728,-1.3747,-1.3736,-1.3757,-1.3771,-1.3767,-1.3792,-1.3799,-1.3814,-1.3842,-1.3854,-1.3849,-1.3895,-1.3882,-1.3884,-1.3885,-1.3899,-1.3903,-1.3907,-1.3858,-1.3858,-1.3858,0,0,-1.3697,-1.3709,-1.3731,-1.3742,-1.3759,-1.3765,-1.377,-1.3786,-1.3791,-1.3816,-1.3814,-1.3829,-1.3859,-1.3869,-1.3879,-1.3911,-1.3908,-1.3916,-1.3932,-1.3946,-1.3949,-1.3952,-1.3963,-1.3967,-1.3919,-1.3919,-1.3919,0,-1.3709,-1.3738,-1.3743,-1.3763,-1.3774,-1.3772,-1.3794,-1.3804,-1.3825,-1.3833,-1.3826,-1.3863,-1.3873,-1.3902,-1.391,-1.3917,-1.3923,-1.3915,-1.3949,-1.3952,-1.3955,-1.3965,-1.3969,-1.392,-1.392,-1.392,-1.392,0,-1.3751,-1.3771,-1.3787,-1.3808,-1.3821,-1.3842,-1.3848,-1.386,-1.3861,-1.3867,-1.3892,-1.3903,-1.3922,-1.3929,-1.3929,-1.3957,-1.3953,-1.3948,-1.3936,-1.396,-1.3969,-1.3973,-1.3921,-1.3921,-1.3921,-1.392,0,0,-1.3789,-1.3811,-1.3817,-1.3826,-1.3843,-1.3858,-1.3878,-1.3897,-1.3907,-1.3921,-1.3937,-1.3962,-1.3956,-1.3967,-1.3968,-1.3981,-1.4005,-1.3974,-1.3974,-1.3978,-1.4035,-1.4039,-1.4043,-1.4003,-1.4004,-1.4004,-1.4033,0,-1.3821,-1.3858,-1.3862,-1.3894,-1.3912,-1.3909,-1.3926,-1.3938,-1.3944,-1.3959,-1.3965,-1.3982,-1.3974,-1.398,-1.3993,-1.3999,-1.4016,-1.3997,-1.4017,-1.4018,-1.4013,-1.4049,-1.4053,-1.408,-1.4037,-1.4038,-1.4038,0,-1.3863,-1.3878,-1.3913,-1.3927,-1.3934,-1.395,-1.3966,-1.3981,-1.3994,-1.3997,-1.4008,-1.4008,-1.4027,-1.4015,-1.4041,-1.4028,-1.4036,-1.404,-1.4041,-1.4043,-1.4029,-1.4051,-1.4089,-1.4093,-1.4045,-1.4044,-1.4044,0,-1.3886,-1.3915,-1.3939,-1.3947,-1.3964,-1.3975,-1.3982,-1.3994,-1.4005,-1.4018,-1.4025,-1.4041,-1.4049,-1.4061,-1.4064,-1.4055,-1.409,-1.4078,-1.4092,-1.4092,-1.41,-1.4099,-1.4139,-1.4106,-1.4106,-1.4106,-1.4105,0,-1.3921,-1.3941,-1.3949,-1.3964,-1.3987,-1.399,-1.4012,-1.4019,-1.403,-1.4045,-1.4043,-1.4057,-1.4061,-1.4075,-1.4078,-1.4099,-1.4103,-1.4105,-1.4105,-1.4105,-1.4105,-1.411,-1.4108,-1.4107,-1.4106,-1.4106,-1.4106,0,-1.395,-1.3957,-1.3982,-1.3996,-1.4,-1.4016,-1.4027,-1.4041,-1.4046,-1.4065,-1.4069,-1.4077,-1.4093,-1.4098,-1.4118,-1.4119,-1.4143,-1.4142,-1.4139,-1.4139,-1.4153,-1.4151,-1.4198,-1.4203,-1.4166,-1.4167,-1.4167,0,-1.3972,-1.3988,-1.4003,-1.4013,-1.4021,-1.4038,-1.4048,-1.4052,-1.4062,-1.4078,-1.4089,-1.4105,-1.4119,-1.4145,-1.4152,-1.4166,-1.4165,-1.418,-1.4167,-1.4166,-1.4165,-1.4163,-1.4165,-1.4183,-1.4183,-1.4184,-1.4184,0,-1.401,-1.4012,-1.4027,-1.4043,-1.4056,-1.4068,-1.4081,-1.4089,-1.4094,-1.4106,-1.4123,-1.4133,-1.4153,-1.4169,-1.4184,-1.419,-1.4187,-1.4188,-1.4192,-1.4191,-1.4189,-1.4189,-1.4146,-1.4187,-1.4186,-1.4186,-1.4186,-1.4186,-1.4035,-1.4049,-1.4061,-1.4078,-1.4088,-1.4099,-1.4112,-1.4118,-1.4133,-1.415,-1.4151,-1.4169,-1.418,-1.4199,-1.4206,-1.422,-1.4215,-1.4221,-1.4223,-1.4224,-1.4225,-1.4187,-1.4223,-1.4223,-1.4222,-1.4222,-1.4222,0,-1.4072,-1.408,-1.4095,-1.4112,-1.4125,-1.4122,-1.4135,-1.4145,-1.4162,-1.4172,-1.4185,-1.4204,-1.4219,-1.4227,-1.4241,-1.4251,-1.425,-1.4254,-1.4253,-1.4255,-1.4228,-1.4223,-1.4255,-1.4255,-1.4255,-1.4255,-1.4255,-1.4255,-1.4093,-1.4115,-1.4118,-1.4145,-1.4152,-1.417,-1.4178,-1.4187,-1.4196,-1.4217,-1.423,-1.4235,-1.4244,-1.4259,-1.4272,-1.4274,-1.4279,-1.4284,-1.4285,-1.426,-1.4257,-1.4254,-1.4249,-1.4285,-1.4285,-1.431,-1.431,-1.4311]}]]